Date String (YYYY-MM-DD hh:mm:ss) UTC,Instrument flags,absolute air pressure of the measurement (hPa),sample flow rate (lpm),inlet stack bypass flow (lpm),air temperature of the measurement (°C),ambient temperature measured by the external sensor (°C),aerosol sample conditioner tube jacket temperature (°C),OPC LED temperature (°C),internal box temperature (°C),relative humidity of the measurement (%),span deviation,mass concentration of particles derived from Lorenz-Mie calculation of OPC scattering (μg/m³),mass concentration of particles derived from Lorenz-Mie calculation of OPC scattering (μg/m³),mass concentration of particles derived from Lorenz-Mie calculation of OPC scattering (μg/m³)
DateTimeUTC,F1_M11,P_M11,Q1_M11,Q2_M11,T1_M11,T2_M11,T3_M11,T4_M11,T5_M11,U1_M11,ZSPAN_M11,X0_M11,X2_M11,X1_M11
2024-04-30 09:00:00,SystemResetWarning,0819.7,5.00,000.00,025.1,024.3,000.0,033.6,026.9,014.7,0000.0,0007.52,0003.25,0001.66
2024-04-30 09:01:00,SystemResetWarning,0820.1,5.00,000.00,025.1,024.3,000.0,033.6,026.9,014.6,0000.0,0007.54,0003.25,0001.67
2024-04-30 09:02:00,SystemResetWarning,0819.9,5.01,000.00,025.1,024.3,000.0,033.6,026.9,014.5,0000.0,0007.50,0003.23,0001.67
2024-04-30 09:03:00,SystemResetWarning,0819.7,5.01,000.00,025.1,024.3,000.0,033.6,026.9,014.3,0000.0,0007.50,0003.23,0001.68
2024-04-30 09:04:00,SystemResetWarning,0819.7,4.99,000.00,025.1,024.3,000.0,033.6,026.9,014.4,0000.0,0007.47,0003.22,0001.69
2024-04-30 09:05:00,SystemResetWarning,0819.8,4.99,000.00,025.1,024.3,000.0,033.6,026.9,014.7,0000.0,0007.64,0003.26,0001.69
2024-04-30 09:06:00,SystemResetWarning,0819.8,5.01,000.00,025.1,024.3,000.0,033.6,026.9,014.8,0000.0,0007.69,0003.27,0001.69
2024-04-30 09:07:00,SystemResetWarning,0819.8,5.00,000.00,025.1,024.3,000.0,033.6,026.9,014.7,0000.0,0007.70,0003.23,0001.68
2024-04-30 09:08:00,SystemResetWarning,0819.7,4.98,000.00,025.1,024.3,000.0,033.6,026.9,014.9,0000.0,0007.81,0003.25,0001.68
2024-04-30 09:09:00,SystemResetWarning,0820.0,5.00,000.00,025.1,024.2,000.0,033.6,026.8,015.4,0000.0,0007.35,0003.22,0001.69
2024-04-30 09:10:00,SystemResetWarning,0819.8,5.01,000.00,025.1,024.2,000.0,033.6,026.9,015.2,0000.0,0007.34,0003.21,0001.72
2024-04-30 09:11:00,SystemResetWarning,0820.1,5.00,000.00,025.1,024.2,000.0,033.6,026.9,014.9,0000.0,0007.03,0003.19,0001.71
2024-04-30 09:12:00,SystemResetWarning,0819.9,4.98,000.00,025.1,024.2,000.0,033.6,026.9,015.1,0000.0,0006.88,0003.19,0001.71
2024-04-30 09:13:00,SystemResetWarning,0820.0,5.00,000.00,025.1,024.3,000.0,033.6,026.9,015.6,0000.0,0006.84,0003.17,0001.71
2024-04-30 09:14:00,SystemResetWarning,0819.8,5.01,000.00,025.1,024.3,000.0,033.6,026.9,015.4,0000.0,0006.77,0003.15,0001.71
2024-04-30 09:15:00,SystemResetWarning,0819.8,5.01,000.00,025.1,024.3,000.0,033.6,026.9,015.3,0000.0,0006.61,0003.11,0001.71
2024-04-30 09:16:00,SystemResetWarning,0819.8,4.99,000.00,025.1,024.3,000.0,033.6,026.9,015.2,0000.0,0006.42,0003.10,0001.73
2024-04-30 09:17:00,SystemResetWarning,0819.8,5.00,000.00,025.1,024.3,000.0,033.6,026.9,015.1,0000.0,0006.30,0003.08,0001.74
2024-04-30 09:18:00,SystemResetWarning,0819.8,4.99,000.00,025.1,024.3,000.0,033.6,026.9,014.9,0000.0,0006.12,0003.06,0001.74
2024-04-30 09:19:00,SystemResetWarning,0819.8,4.99,000.00,025.1,024.3,000.0,033.6,026.9,014.7,0000.0,0005.98,0003.03,0001.73
2024-04-30 09:20:00,SystemResetWarning,0819.8,5.00,000.00,025.1,024.3,000.0,033.6,026.9,014.6,0000.0,0006.06,0003.06,0001.71
2024-04-30 09:21:00,SystemResetWarning,0819.7,5.01,000.00,025.1,024.3,000.0,033.6,026.9,014.7,0000.0,0005.94,0002.99,0001.69
2024-04-30 09:22:00,SystemResetWarning,0819.8,5.01,000.00,025.1,024.3,000.0,033.6,026.9,014.7,0000.0,0006.10,0003.01,0001.69
2024-04-30 09:23:00,SystemResetWarning,0819.7,5.00,000.00,025.1,024.3,000.0,033.6,026.9,014.8,0000.0,0006.00,0002.99,0001.68
2024-04-30 09:24:00,SystemResetWarning,0819.7,5.00,000.00,025.1,024.3,000.0,033.6,026.9,014.7,0000.0,0006.15,0003.06,0001.68
2024-04-30 09:25:00,SystemResetWarning,0819.9,4.98,000.00,025.1,024.3,000.0,033.6,026.8,014.7,0000.0,0006.04,0003.06,0001.69
2024-04-30 09:26:00,SystemResetWarning,0820.0,5.01,000.00,025.0,024.2,000.0,033.6,026.8,014.7,0000.0,0006.22,0003.13,0001.68
2024-04-30 09:27:00,SystemResetWarning,0819.6,5.01,000.00,025.0,024.2,000.0,033.6,026.8,014.8,0000.0,0007.27,0003.16,0001.68
2024-04-30 09:28:00,SystemResetWarning,0819.5,4.99,000.00,025.0,024.2,000.0,033.6,026.8,014.9,0000.0,0007.51,0003.20,0001.67
2024-04-30 09:29:00,SystemResetWarning,0819.5,5.00,000.00,025.0,024.2,000.0,033.6,026.8,014.9,0000.0,0007.56,0003.23,0001.66
2024-04-30 09:30:00,SystemResetWarning,0819.5,5.00,000.00,025.0,024.2,000.0,033.6,026.8,015.1,0000.0,0007.63,0003.25,0001.67
2024-04-30 09:31:00,SystemResetWarning,0819.5,5.00,000.00,025.0,024.2,000.0,033.6,026.8,015.2,0000.0,0007.54,0003.22,0001.67
2024-04-30 09:32:00,SystemResetWarning,0819.7,5.00,000.00,025.0,024.2,000.0,033.6,026.8,015.4,0000.0,0007.67,0003.27,0001.66
2024-04-30 09:33:00,SystemResetWarning,0819.6,5.00,000.00,025.0,024.2,000.0,033.6,026.8,015.3,0000.0,0007.84,0003.30,0001.66
2024-04-30 09:34:00,SystemResetWarning,0819.7,5.00,000.00,025.0,024.2,000.0,033.6,026.8,015.3,0000.0,0008.63,0003.32,0001.67
2024-04-30 09:35:00,SystemResetWarning,0819.6,4.99,000.00,025.0,024.2,000.0,033.6,026.9,015.3,0000.0,0008.86,0003.31,0001.66
2024-04-30 09:36:00,SystemResetWarning,0819.5,5.00,000.00,025.0,024.2,000.0,033.6,026.8,015.3,0000.0,0008.97,0003.33,0001.67
2024-04-30 09:37:00,SystemResetWarning,0819.5,5.01,000.00,025.0,024.2,000.0,033.6,026.8,015.3,0000.0,0009.22,0003.33,0001.67
2024-04-30 09:38:00,SystemResetWarning,0819.5,5.00,000.00,025.0,024.2,000.0,033.6,026.8,015.4,0000.0,0009.04,0003.34,0001.69
2024-04-30 09:39:00,SystemResetWarning,0819.5,5.00,000.00,025.0,024.2,000.0,033.6,026.9,015.4,0000.0,0008.60,0003.31,0001.70
2024-04-30 09:40:00,SystemResetWarning,0819.5,5.00,000.00,025.0,024.2,000.0,033.6,026.8,015.4,0000.0,0008.45,0003.27,0001.70
2024-04-30 09:41:00,SystemResetWarning,0819.4,5.00,000.00,025.0,024.2,000.0,033.6,026.8,015.3,0000.0,0008.34,0003.24,0001.71
2024-04-30 09:42:00,SystemResetWarning,0819.5,5.00,000.00,025.0,024.2,000.0,033.5,026.8,015.4,0000.0,0008.30,0003.23,0001.72
2024-04-30 09:43:00,SystemResetWarning,0819.5,4.99,000.00,025.0,024.2,000.0,033.5,026.8,015.4,0000.0,0008.37,0003.26,0001.74
2024-04-30 09:44:00,SystemResetWarning,0819.4,5.00,000.00,025.0,024.2,000.0,033.5,026.8,015.5,0000.0,0008.56,0003.23,0001.75
2024-04-30 09:45:00,SystemResetWarning,0819.3,4.99,000.00,025.0,024.2,000.0,033.5,026.8,015.6,0000.0,0008.30,0003.19,0001.76
2024-04-30 09:46:00,SystemResetWarning,0819.3,5.00,000.00,025.0,024.2,000.0,033.5,026.8,015.7,0000.0,0007.89,0003.22,0001.77
2024-04-30 09:47:00,SystemResetWarning,0819.4,5.00,000.00,025.0,024.2,000.0,033.5,026.8,015.7,0000.0,0007.83,0003.23,0001.78
2024-04-30 09:48:00,SystemResetWarning,0819.3,5.00,000.00,025.0,024.2,000.0,033.5,026.8,015.6,0000.0,0007.54,0003.17,0001.75
2024-04-30 09:49:00,SystemResetWarning,0819.3,5.00,000.00,025.0,024.2,000.0,033.5,026.8,016.1,0000.0,0007.45,0003.15,0001.73
2024-04-30 09:50:00,SystemResetWarning,0819.3,4.99,000.00,025.0,024.2,000.0,033.5,026.9,016.0,0000.0,0007.50,0003.15,0001.72
2024-04-30 09:51:00,SystemResetWarning,0819.3,5.00,000.00,025.0,024.2,000.0,033.5,026.9,016.0,0000.0,0007.58,0003.16,0001.72
2024-04-30 09:52:00,SystemResetWarning,0819.3,5.01,000.00,025.0,024.3,000.0,033.5,026.8,015.8,0000.0,0007.61,0003.17,0001.71
2024-04-30 09:53:00,SystemResetWarning,0819.3,5.00,000.00,025.0,024.3,000.0,033.5,026.9,015.7,0000.0,0007.70,0003.22,0001.73
2024-04-30 09:54:00,SystemResetWarning,0819.4,4.98,000.00,025.0,024.3,000.0,033.6,026.9,015.7,0000.0,0007.62,0003.18,0001.69
2024-04-30 09:55:00,SystemResetWarning,0819.3,5.00,000.00,025.1,024.3,000.0,033.6,026.9,015.7,0000.0,0007.28,0003.14,0001.66
2024-04-30 09:56:00,SystemResetWarning,0819.0,5.01,000.00,025.1,024.3,000.0,033.6,026.9,015.8,0000.0,0006.38,0003.14,0001.64
2024-04-30 09:57:00,SystemResetWarning,0819.2,5.01,000.00,025.1,024.3,000.0,033.6,026.9,015.5,0000.0,0006.15,0003.12,0001.62
2024-04-30 09:58:00,SystemResetWarning,0819.3,4.99,000.00,025.0,024.3,000.0,033.6,026.9,016.1,0000.0,0006.11,0003.06,0001.60
2024-04-30 09:59:00,SystemResetWarning,0819.4,5.00,000.00,025.0,024.2,000.0,033.6,026.9,016.4,0000.0,0006.26,0003.10,0001.61
